Weather History for Olathe New Century, KS

Change the Weather History Date:

Wednesday, January 2, 2013

  Actual Average Record
Temperature  
Mean Temperature 20 °F -  
Max Temperature 32 °F 38 °F 64 °F (2004)
Min Temperature 7 °F 20 °F -9 °F (2001)
Degree Days  
Heating Degree Days 46    
Moisture  
Dew Point 15 °F    
Average Humidity 79    
Maximum Humidity 92    
Minimum Humidity 69    
Precipitation  
Precipitation 0.00 in - - ()
Sea Level Pressure  
Sea Level Pressure 30.24 in    
Wind  
Wind Speed 7 mph (SW)    
Max Wind Speed 13 mph    
Max Gust Speed -    
Visibility 8 miles    
Events Snow    
Averages and records for this station are not official NWS values.
T = Trace of Precipitation, MM = Missing Value Source: NWS Daily Summary

Daily Weather History Graph

Daily Weather History Graph

Search for Another Location

Airport:

Trip Planner

Search our weather history database for the weather conditions in past years. The results will help you decide how hot, cold, wet, or windy it might be!

Date:

Astronomy

Jan. 02, 2013 Rise Set
Actual Time 7:38 AM CST 5:09 PM CST
Civil Twilight 7:08 AM CST 5:39 PM CST
Nautical Twilight 6:35 AM CST 6:12 PM CST
Astronomical Twilight 6:02 AM CST 6:44 PM CST
Moon 10:39 PM CST (1/2) 10:23 AM CST (1/2)
Length of Visible Light 10h 30m
Length of Day
9h 31m
Waning Gibbous, 75% of the Moon is Illuminated
Jan 2
Waning Gibbous
Jan 4
Last Quarter
Jan 11
New
Jan 18
First Quarter
Jan 26
Full

Hourly Weather History & Observations

Time (CST) Temp. Windchill Dew Point Humidity Pressure Visibility Wind Dir Wind Speed Gust Speed Precip Events Conditions
12:53 AM 9.0 °F -0.9 °F 3.9 °F 80% 30.29 in 9.0 mi SW 5.8 mph - N/A   Clear
1:53 AM 10.0 °F -0.9 °F 5.0 °F 80% 30.28 in 10.0 mi SSW 6.9 mph - N/A   Clear
3:53 AM 10.0 °F 0.4 °F 6.1 °F 84% 30.27 in 8.0 mi South 5.8 mph - N/A   Clear
4:53 AM 8.1 °F 1.4 °F 5.0 °F 87% 30.25 in 6.0 mi South 3.5 mph - N/A   Clear
5:53 AM 7.0 °F -4.5 °F 3.9 °F 87% 30.24 in 6.0 mi SSE 6.9 mph - N/A   Clear
6:53 AM 12.0 °F 1.5 °F 9.0 °F 88% 30.24 in 6.0 mi SSW 6.9 mph - 0.00 in Snow Light Snow
7:53 AM 8.1 °F -3.2 °F 6.1 °F 92% 30.23 in 4.0 mi South 6.9 mph - 0.00 in   Clear
8:53 AM 12.0 °F 4.1 °F 9.0 °F 88% 30.23 in 5.0 mi South 4.6 mph - N/A   Clear
9:53 AM 19.9 °F 11.1 °F 15.1 °F 81% 30.23 in 7.0 mi South 6.9 mph - N/A   Clear
10:53 AM 24.1 °F 13.1 °F 18.0 °F 77% 30.24 in 8.0 mi South 11.5 mph - N/A   Clear
11:53 AM 28.0 °F 17.5 °F 21.0 °F 75% 30.21 in 10.0 mi SW 12.7 mph - N/A   Clear
12:53 PM 28.9 °F 18.6 °F 21.0 °F 72% 30.19 in 10.0 mi SW 12.7 mph - N/A   Clear
1:53 PM 30.0 °F 20.5 °F 21.9 °F 72% 30.16 in 10.0 mi SSW 11.5 mph - N/A   Clear
2:53 PM 32.0 °F 23.6 °F 23.0 °F 69% 30.16 in 10.0 mi SW 10.4 mph - N/A   Mostly Cloudy
3:53 PM 32.0 °F 23.0 °F 23.0 °F 69% 30.18 in 10.0 mi WSW 11.5 mph - N/A   Mostly Cloudy
5:53 PM 27.0 °F 18.7 °F 19.0 °F 72% 30.23 in 10.0 mi West 8.1 mph - N/A   Mostly Cloudy
6:53 PM 26.1 °F 19.4 °F 18.0 °F 71% 30.24 in 10.0 mi West 5.8 mph - N/A   Overcast
7:53 PM 24.1 °F 18.2 °F 17.1 °F 75% 30.26 in 10.0 mi West 4.6 mph - N/A   Clear
8:53 PM 24.1 °F 18.2 °F 18.0 °F 77% 30.27 in 9.0 mi WSW 4.6 mph - N/A   Mostly Cloudy
9:53 PM 25.0 °F 20.7 °F 19.0 °F 78% 30.27 in 9.0 mi SW 3.5 mph - N/A   Overcast
10:53 PM 25.0 °F 17.1 °F 19.0 °F 78% 30.28 in 9.0 mi SW 6.9 mph - N/A   Overcast
11:53 PM 25.0 °F 18.1 °F 19.9 °F 81% 30.29 in 9.0 mi WSW 5.8 mph - N/A   Overcast